{"data":{"norad_id":44785,"intl_designator":"2019-077A","name":"KL-ALPHA A","alt_names":[],"object_type":"PAYLOAD","status":"ACTIVE","operator":null,"country":"GER","launch_date":"2019-11-17","launch_site_code":"JSC","launch_vehicle":null,"mission":null,"orbit_class":"UNKNOWN","rcs_meters":null,"size_class":null,"mass_kg":null,"dimensions":null,"purposes":[],"wikipedia_slug":null,"has_3d_model":false,"image_url":null,"decayed_at":null,"tle_current":{"epoch":"2026-05-25T04:07:50.038752Z","epoch_age_seconds":60208,"freshness":"FRESH","line1":"1 44785U 19077A   26145.17210693  .00000190  00000+0  25417-3 0  9990","line2":"2 44785  88.9257 225.0794 0011572 165.4812 194.6676 13.56041092322615","mean_motion":13.56041092,"eccentricity":0.0011572,"inclination_deg":88.9257,"raan_deg":225.0794,"arg_perigee_deg":165.4812,"mean_anomaly_deg":194.6676,"bstar":0.00025417,"rev_number":32261,"period_min":106.19147225665,"perigee_km":1041.5186740506,"apogee_km":1058.7106196621,"semimajor_km":7428.2516468564,"source":"CELESTRAK","updated_at":"2026-05-25T13:37:56.031792Z"}}}